Time,TemperatureF,DewpointF,PressureIn,WindDirection,WindDirectionDegrees,WindSpeedMPH,WindSpeedGustMPH,Humidity,HourlyPrecipIn,Conditions,Clouds,dailyrainin,SoftwareType,DateUTC
2013-02-19 00:00:00,19.6,6.8,30.15,SSW,192,0.0,-999.0,57,0.00,,,0.00,Python,2013-02-19 05:00:00,
2013-02-19 00:01:00,19.5,5.9,30.15,SSW,192,0.0,-999.0,55,0.00,,,0.00,Python,2013-02-19 05:01:00,
2013-02-19 00:02:00,19.6,6.0,30.15,SSW,192,0.0,-999.0,55,0.00,,,0.00,Python,2013-02-19 05:02:00,
2013-02-19 00:07:00,19.7,6.1,30.15,SSW,192,0.0,-999.0,55,0.00,,,0.00,Python,2013-02-19 05:07:00,
2013-02-19 00:12:00,19.8,5.4,30.15,SSE,150,0.0,-999.0,53,0.00,,,0.00,Python,2013-02-19 05:12:00,
2013-02-19 00:17:00,20.0,5.6,30.15,SSE,150,0.0,-999.0,53,0.00,,,0.00,Python,2013-02-19 05:17:00,
2013-02-19 00:22:00,20.0,5.6,30.15,SSE,150,0.0,-999.0,53,0.00,,,0.00,Python,2013-02-19 05:22:00,
2013-02-19 00:27:00,20.2,6.2,30.15,ESE,107,0.0,-999.0,54,0.00,,,0.00,Python,2013-02-19 05:27:00,
2013-02-19 00:33:00,20.1,5.2,30.15,ESE,107,0.0,-999.0,52,0.00,,,0.00,Python,2013-02-19 05:33:00,
2013-02-19 00:38:00,20.2,4.9,30.15,ESE,107,0.0,-999.0,51,0.00,,,0.00,Python,2013-02-19 05:38:00,
2013-02-19 00:43:00,20.2,4.9,30.15,ESE,107,0.0,-999.0,51,0.00,,,0.00,Python,2013-02-19 05:43:00,
2013-02-19 00:48:00,20.1,4.8,30.15,ESE,107,0.0,-999.0,51,0.00,,,0.00,Python,2013-02-19 05:48:00,
2013-02-19 00:53:00,20.1,4.8,30.15,ESE,107,0.0,-999.0,51,0.00,,,0.00,Python,2013-02-19 05:53:00,
2013-02-19 00:58:00,19.8,8.2,30.15,ESE,107,0.0,-999.0,60,0.00,,,0.00,Python,2013-02-19 05:58:00,
2013-02-19 01:03:00,19.6,8.0,30.15,ESE,107,0.0,-999.0,60,0.00,,,0.00,Python,2013-02-19 06:03:00,
2013-02-19 01:08:00,19.4,8.2,30.16,ESE,107,0.0,-999.0,61,0.00,,,0.00,Python,2013-02-19 06:08:00,
2013-02-19 01:13:00,19.6,6.8,30.15,ESE,107,0.0,-999.0,57,0.00,,,0.00,Python,2013-02-19 06:13:00,
2013-02-19 01:19:00,19.9,7.9,30.15,ESE,107,0.0,-999.0,59,0.00,,,0.00,Python,2013-02-19 06:19:00,
2013-02-19 01:24:00,20.3,6.7,30.15,ESE,107,0.0,-999.0,55,0.00,,,0.00,Python,2013-02-19 06:24:00,
2013-02-19 01:29:00,20.6,7.4,30.15,ESE,107,0.0,-999.0,56,0.00,,,0.00,Python,2013-02-19 06:29:00,
2013-02-19 01:34:00,20.7,8.7,30.15,ESE,107,0.0,-999.0,59,0.00,,,0.00,Python,2013-02-19 06:34:00,
2013-02-19 01:40:00,20.8,9.1,30.16,ESE,107,0.0,-999.0,60,0.00,,,0.00,Python,2013-02-19 06:40:00,
2013-02-19 01:45:00,20.8,8.0,30.16,ESE,107,0.0,-999.0,57,0.00,,,0.00,Python,2013-02-19 06:45:00,
2013-02-19 01:50:00,20.9,8.8,30.16,ESE,107,0.0,-999.0,59,0.00,,,0.00,Python,2013-02-19 06:50:00,
2013-02-19 01:55:00,21.1,8.6,30.15,ESE,107,0.0,-999.0,58,0.00,,,0.00,Python,2013-02-19 06:55:00,
2013-02-19 02:00:00,21.2,9.1,30.15,ESE,107,0.0,-999.0,59,0.00,,,0.00,Python,2013-02-19 07:00:00,
2013-02-19 02:05:00,21.2,9.5,30.15,ESE,107,0.0,-999.0,60,0.00,,,0.00,Python,2013-02-19 07:05:00,
2013-02-19 02:10:00,21.2,9.5,30.15,ESE,107,0.0,-999.0,60,0.00,,,0.00,Python,2013-02-19 07:10:00,
2013-02-19 02:15:00,21.2,9.1,30.15,ESE,107,0.0,-999.0,59,0.00,,,0.00,Python,2013-02-19 07:15:00,
2013-02-19 02:20:00,21.2,9.1,30.15,ESE,107,0.0,-999.0,59,0.00,,,0.00,Python,2013-02-19 07:20:00,
2013-02-19 02:26:00,21.2,8.3,30.15,ESE,107,0.0,-999.0,57,0.00,,,0.00,Python,2013-02-19 07:26:00,
2013-02-19 02:30:00,21.3,8.8,30.15,ESE,107,0.0,-999.0,58,0.00,,,0.00,Python,2013-02-19 07:30:00,
2013-02-19 02:36:00,21.2,8.7,30.15,SE,144,0.0,-999.0,58,0.00,,,0.00,Python,2013-02-19 07:36:00,
2013-02-19 02:41:00,21.2,8.3,30.14,South,188,0.0,-999.0,57,0.00,,,0.00,Python,2013-02-19 07:41:00,
2013-02-19 02:46:00,21.0,8.9,30.14,South,188,0.0,-999.0,59,0.00,,,0.00,Python,2013-02-19 07:46:00,
2013-02-19 02:51:00,20.8,9.1,30.14,South,188,0.0,-999.0,60,0.00,,,0.00,Python,2013-02-19 07:51:00,
2013-02-19 02:57:00,20.4,9.1,30.14,South,188,0.0,-999.0,61,0.00,,,0.00,Python,2013-02-19 07:57:00,
2013-02-19 03:02:00,20.2,9.7,30.14,South,188,0.0,-999.0,63,0.00,,,0.00,Python,2013-02-19 08:02:00,
2013-02-19 03:07:00,20.0,9.5,30.14,South,188,0.0,-999.0,63,0.00,,,0.00,Python,2013-02-19 08:07:00,
2013-02-19 03:12:00,19.9,9.4,30.14,South,188,0.0,-999.0,63,0.00,,,0.00,Python,2013-02-19 08:12:00,
2013-02-19 03:17:00,19.8,9.3,30.14,South,188,0.0,-999.0,63,0.00,,,0.00,Python,2013-02-19 08:17:00,
2013-02-19 03:22:00,19.9,9.4,30.13,South,188,0.0,-999.0,63,0.00,,,0.00,Python,2013-02-19 08:22:00,
2013-02-19 03:28:00,19.8,9.3,30.13,South,188,0.0,-999.0,63,0.00,,,0.00,Python,2013-02-19 08:28:00,
2013-02-19 03:33:00,19.9,9.4,30.12,South,188,0.0,-999.0,63,0.00,,,0.00,Python,2013-02-19 08:33:00,
2013-02-19 03:38:00,20.2,9.3,30.11,South,188,0.0,-999.0,62,0.00,,,0.00,Python,2013-02-19 08:38:00,
2013-02-19 03:43:00,20.3,9.8,30.11,South,188,0.0,-999.0,63,0.00,,,0.00,Python,2013-02-19 08:43:00,
2013-02-19 03:48:00,20.2,9.3,30.11,South,188,0.0,-999.0,62,0.00,,,0.00,Python,2013-02-19 08:48:00,
2013-02-19 03:54:00,20.1,8.8,30.12,South,188,0.0,-999.0,61,0.00,,,0.00,Python,2013-02-19 08:54:00,
2013-02-19 03:59:00,20.0,9.1,30.12,South,188,0.0,-999.0,62,0.00,,,0.00,Python,2013-02-19 08:59:00,
2013-02-19 04:04:00,20.0,9.8,30.12,South,188,0.0,-999.0,64,0.00,,,0.00,Python,2013-02-19 09:04:00,
2013-02-19 04:09:00,20.1,10.9,30.12,South,188,0.0,-999.0,67,0.00,,,0.00,Python,2013-02-19 09:09:00,
2013-02-19 04:14:00,20.1,11.3,30.11,South,188,0.0,-999.0,68,0.00,,,0.00,Python,2013-02-19 09:14:00,
2013-02-19 04:20:00,20.2,11.0,30.11,South,188,0.0,-999.0,67,0.00,,,0.00,Python,2013-02-19 09:20:00,
2013-02-19 04:25:00,20.2,10.4,30.11,South,188,0.0,-999.0,65,0.00,,,0.00,Python,2013-02-19 09:25:00,
2013-02-19 04:30:00,20.3,10.8,30.12,South,188,0.0,-999.0,66,0.00,,,0.00,Python,2013-02-19 09:30:00,
2013-02-19 04:35:00,20.8,12.6,30.12,South,188,0.0,-999.0,70,0.00,,,0.00,Python,2013-02-19 09:35:00,
2013-02-19 04:40:00,21.1,13.8,30.12,South,188,0.0,-999.0,73,0.00,,,0.00,Python,2013-02-19 09:40:00,
2013-02-19 04:46:00,21.3,13.1,30.12,South,188,0.0,-999.0,70,0.00,,,0.00,Python,2013-02-19 09:46:00,
2013-02-19 04:51:00,21.5,13.0,30.12,South,188,0.0,-999.0,69,0.00,,,0.00,Python,2013-02-19 09:51:00,
2013-02-19 04:56:00,21.5,13.3,30.12,South,188,0.0,-999.0,70,0.00,,,0.00,Python,2013-02-19 09:56:00,
2013-02-19 05:01:00,21.4,13.2,30.12,South,188,0.0,-999.0,70,0.00,,,0.00,Python,2013-02-19 10:01:00,
2013-02-19 05:06:00,21.1,11.9,30.12,South,188,0.0,-999.0,67,0.00,,,0.00,Python,2013-02-19 10:06:00,
2013-02-19 05:12:00,20.9,12.0,30.12,South,188,0.0,-999.0,68,0.00,,,0.00,Python,2013-02-19 10:12:00,
2013-02-19 05:17:00,20.6,12.1,30.12,South,188,0.0,-999.0,69,0.00,,,0.00,Python,2013-02-19 10:17:00,
2013-02-19 05:22:00,20.3,11.8,30.13,South,188,0.0,-999.0,69,0.00,,,0.00,Python,2013-02-19 10:22:00,
2013-02-19 05:27:00,20.1,11.3,30.12,South,188,0.0,-999.0,68,0.00,,,0.00,Python,2013-02-19 10:27:00,
2013-02-19 05:32:00,20.0,11.5,30.12,South,188,0.0,-999.0,69,0.00,,,0.00,Python,2013-02-19 10:32:00,
2013-02-19 05:38:00,19.8,11.6,30.12,South,188,0.0,-999.0,70,0.00,,,0.00,Python,2013-02-19 10:38:00,
2013-02-19 05:43:00,19.7,12.2,30.12,South,188,0.0,-999.0,72,0.00,,,0.00,Python,2013-02-19 10:43:00,
2013-02-19 05:48:00,19.5,12.6,30.12,South,188,0.0,-999.0,74,0.00,,,0.00,Python,2013-02-19 10:48:00,
2013-02-19 05:53:00,19.4,12.5,30.12,South,188,0.0,-999.0,74,0.00,,,0.00,Python,2013-02-19 10:53:00,
2013-02-19 05:58:00,19.2,12.3,30.12,South,188,0.0,-999.0,74,0.00,,,0.00,Python,2013-02-19 10:58:00,
2013-02-19 06:04:00,19.1,11.6,30.11,South,188,0.0,-999.0,72,0.00,,,0.00,Python,2013-02-19 11:04:00,
2013-02-19 06:09:00,19.0,12.1,30.11,South,188,0.0,-999.0,74,0.00,,,0.00,Python,2013-02-19 11:09:00,
2013-02-19 06:14:00,18.8,11.6,30.11,South,188,0.0,-999.0,73,0.00,,,0.00,Python,2013-02-19 11:14:00,
2013-02-19 06:19:00,18.8,11.6,30.11,South,188,0.0,-999.0,73,0.00,,,0.00,Python,2013-02-19 11:19:00,
2013-02-19 06:24:00,18.6,10.8,30.11,South,188,0.0,-999.0,71,0.00,,,0.00,Python,2013-02-19 11:24:00,
2013-02-19 06:30:00,18.6,10.8,30.11,South,188,0.0,-999.0,71,0.00,,,0.00,Python,2013-02-19 11:30:00,
2013-02-19 06:35:00,18.5,10.7,30.11,South,188,0.0,-999.0,71,0.00,,,0.00,Python,2013-02-19 11:35:00,
2013-02-19 06:40:00,18.4,10.6,30.10,South,188,0.0,-999.0,71,0.00,,,0.00,Python,2013-02-19 11:40:00,
2013-02-19 06:45:00,18.3,10.8,30.10,South,188,0.0,-999.0,72,0.00,,,0.00,Python,2013-02-19 11:45:00,
2013-02-19 06:50:00,18.2,11.0,30.10,South,188,0.0,-999.0,73,0.00,,,0.00,Python,2013-02-19 11:50:00,
2013-02-19 06:56:00,18.1,10.6,30.10,South,188,0.0,-999.0,72,0.00,,,0.00,Python,2013-02-19 11:56:00,
2013-02-19 07:01:00,18.0,9.6,30.10,South,188,0.0,-999.0,69,0.00,,,0.00,Python,2013-02-19 12:01:00,
2013-02-19 07:06:00,18.1,9.4,30.10,South,188,0.0,-999.0,68,0.00,,,0.00,Python,2013-02-19 12:06:00,
2013-02-19 07:11:00,18.2,9.5,30.10,South,188,0.0,-999.0,68,0.00,,,0.00,Python,2013-02-19 12:11:00,
2013-02-19 07:16:00,18.4,9.3,30.10,South,188,0.0,-999.0,67,0.00,,,0.00,Python,2013-02-19 12:16:00,
2013-02-19 07:22:00,18.6,9.2,30.09,South,188,0.0,-999.0,66,0.00,,,0.00,Python,2013-02-19 12:22:00,
2013-02-19 07:27:00,18.8,9.4,30.09,South,188,0.0,-999.0,66,0.00,,,0.00,Python,2013-02-19 12:27:00,
2013-02-19 07:32:00,19.1,9.7,30.09,South,188,0.0,-999.0,66,0.00,,,0.00,Python,2013-02-19 12:32:00,
2013-02-19 07:37:00,19.3,9.8,30.09,South,188,0.0,-999.0,66,0.00,,,0.00,Python,2013-02-19 12:37:00,
2013-02-19 07:42:00,19.5,10.0,30.09,South,188,0.0,-999.0,66,0.00,,,0.00,Python,2013-02-19 12:42:00,
2013-02-19 07:48:00,19.9,10.4,30.08,South,188,0.0,-999.0,66,0.00,,,0.00,Python,2013-02-19 12:48:00,
2013-02-19 07:53:00,20.3,10.5,30.08,South,188,0.0,-999.0,65,0.00,,,0.00,Python,2013-02-19 12:53:00,
2013-02-19 07:58:00,20.8,10.2,30.08,South,188,0.0,-999.0,63,0.00,,,0.00,Python,2013-02-19 12:58:00,
2013-02-19 08:03:00,21.3,10.7,30.08,South,188,0.0,-999.0,63,0.00,,,0.00,Python,2013-02-19 13:03:00,
2013-02-19 08:08:00,21.9,12.0,30.08,South,188,0.0,-999.0,65,0.00,,,0.00,Python,2013-02-19 13:08:00,
2013-02-19 08:14:00,22.6,12.3,30.08,South,188,0.0,-999.0,64,0.00,,,0.00,Python,2013-02-19 13:14:00,
2013-02-19 08:19:00,23.3,12.6,30.08,South,188,0.0,-999.0,63,0.00,,,0.00,Python,2013-02-19 13:19:00,
2013-02-19 08:24:00,23.8,13.1,30.08,South,188,0.0,-999.0,63,0.00,,,0.00,Python,2013-02-19 13:24:00,
2013-02-19 08:29:00,24.7,13.9,30.08,South,188,0.0,-999.0,63,0.00,,,0.00,Python,2013-02-19 13:29:00,
2013-02-19 08:34:00,25.6,14.4,30.08,South,188,0.0,-999.0,62,0.00,,,0.00,Python,2013-02-19 13:34:00,
2013-02-19 08:40:00,26.3,15.1,30.08,South,188,0.0,-999.0,62,0.00,,,0.00,Python,2013-02-19 13:40:00,
2013-02-19 08:45:00,27.1,15.5,30.08,South,188,0.0,-999.0,61,0.00,,,0.00,Python,2013-02-19 13:45:00,
2013-02-19 08:50:00,28.0,15.9,30.08,South,188,0.0,-999.0,60,0.00,,,0.00,Python,2013-02-19 13:50:00,
2013-02-19 08:55:00,29.0,16.9,30.08,South,188,0.0,-999.0,60,0.00,,,0.00,Python,2013-02-19 13:55:00,
2013-02-19 09:00:00,30.1,17.5,30.07,South,188,0.0,-999.0,59,0.00,,,0.00,Python,2013-02-19 14:00:00,
2013-02-19 09:05:00,30.9,18.3,30.07,South,169,0.0,-999.0,59,0.00,,,0.00,Python,2013-02-19 14:05:00,
2013-02-19 09:11:00,31.7,18.6,30.07,South,169,0.0,-999.0,58,0.00,,,0.00,Python,2013-02-19 14:11:00,
2013-02-19 09:16:00,32.5,19.0,30.07,South,171,0.0,-999.0,57,0.00,,,0.00,Python,2013-02-19 14:16:00,
2013-02-19 09:21:00,33.1,19.1,30.07,WSW,243,0.0,-999.0,56,0.00,,,0.00,Python,2013-02-19 14:21:00,
2013-02-19 09:26:00,33.5,19.5,30.07,WSW,243,0.0,-999.0,56,0.00,,,0.00,Python,2013-02-19 14:26:00,
2013-02-19 09:31:00,34.0,20.0,30.07,SW,226,1.0,-999.0,56,0.00,,,0.00,Python,2013-02-19 14:31:00,
2013-02-19 09:37:00,34.3,20.7,30.07,SW,225,1.0,-999.0,57,0.00,,,0.00,Python,2013-02-19 14:37:00,
2013-02-19 09:42:00,34.6,20.9,30.06,SW,225,1.0,-999.0,57,0.00,,,0.00,Python,2013-02-19 14:42:00,
2013-02-19 09:47:00,34.8,21.6,30.06,SSW,198,0.0,-999.0,58,0.00,,,0.00,Python,2013-02-19 14:47:00,
2013-02-19 09:52:00,35.3,22.0,30.05,SW,223,1.0,-999.0,58,0.00,,,0.00,Python,2013-02-19 14:52:00,
2013-02-19 09:57:00,35.6,21.9,30.05,SSW,207,3.0,-999.0,57,0.00,,,0.00,Python,2013-02-19 14:57:00,
2013-02-19 10:03:00,35.8,22.5,30.05,SSW,209,0.0,-999.0,58,0.00,,,0.00,Python,2013-02-19 15:03:00,
2013-02-19 10:08:00,36.1,22.8,30.05,West,261,0.0,-999.0,58,0.00,,,0.01,Python,2013-02-19 15:08:00,
2013-02-19 10:13:00,36.8,23.9,30.04,SSE,155,0.0,-999.0,59,0.00,,,0.01,Python,2013-02-19 15:13:00,
2013-02-19 10:18:00,37.3,24.3,30.04,West,272,0.0,-999.0,59,0.00,,,0.01,Python,2013-02-19 15:18:00,
2013-02-19 10:23:00,37.8,25.6,30.04,West,274,0.0,-999.0,61,0.00,,,0.01,Python,2013-02-19 15:23:00,
2013-02-19 10:28:00,38.1,25.5,30.04,West,274,0.0,-999.0,60,0.00,,,0.01,Python,2013-02-19 15:28:00,
2013-02-19 10:34:00,38.6,25.1,30.04,West,274,0.0,-999.0,58,0.00,,,0.01,Python,2013-02-19 15:34:00,
2013-02-19 10:39:00,38.9,25.8,30.04,WNW,294,2.0,-999.0,59,0.00,,,0.01,Python,2013-02-19 15:39:00,
2013-02-19 10:44:00,39.0,25.9,30.03,ESE,110,1.0,-999.0,59,0.00,,,0.01,Python,2013-02-19 15:44:00,
2013-02-19 10:49:00,39.3,26.2,30.03,SW,221,0.0,-999.0,59,0.00,,,0.01,Python,2013-02-19 15:49:00,
2013-02-19 10:54:00,39.7,26.2,30.04,ESE,116,1.0,-999.0,58,0.00,,,0.01,Python,2013-02-19 15:54:00,
2013-02-19 11:00:00,40.0,27.3,30.03,SSW,193,0.0,-999.0,60,0.00,,,0.01,Python,2013-02-19 16:00:00,
2013-02-19 11:05:00,40.1,27.0,30.03,SW,227,0.0,-999.0,59,0.00,,,0.01,Python,2013-02-19 16:05:00,
2013-02-19 11:10:00,40.4,27.3,30.03,SSW,194,0.0,-999.0,59,0.00,,,0.01,Python,2013-02-19 16:10:00,
2013-02-19 11:15:00,40.9,27.7,30.03,South,177,0.0,-999.0,59,0.00,,,0.01,Python,2013-02-19 16:15:00,
2013-02-19 11:20:00,41.5,28.3,30.02,WSW,242,0.0,-999.0,59,0.00,,,0.01,Python,2013-02-19 16:20:00,
2013-02-19 11:26:00,42.0,28.8,30.01,WSW,246,2.0,-999.0,59,0.00,,,0.01,Python,2013-02-19 16:26:00,
2013-02-19 11:31:00,42.4,29.1,30.01,WSW,257,0.0,-999.0,59,0.00,,,0.01,Python,2013-02-19 16:31:00,
2013-02-19 11:36:00,42.9,28.8,30.00,WSW,247,0.0,-999.0,57,0.00,,,0.01,Python,2013-02-19 16:36:00,
2013-02-19 11:41:00,43.3,30.0,30.00,North,360,0.0,-999.0,59,0.00,,,0.01,Python,2013-02-19 16:41:00,
2013-02-19 11:46:00,43.9,30.1,29.99,SSW,208,1.0,-999.0,58,0.00,,,0.01,Python,2013-02-19 16:46:00,
2013-02-19 11:51:00,44.4,29.7,29.99,SW,230,2.0,-999.0,56,0.00,,,0.01,Python,2013-02-19 16:51:00,
2013-02-19 11:57:00,44.8,29.6,29.98,SW,225,0.0,-999.0,55,0.00,,,0.01,Python,2013-02-19 16:57:00,
2013-02-19 12:02:00,44.9,30.2,29.98,WSW,240,0.0,-999.0,56,0.00,,,0.02,Python,2013-02-19 17:02:00,
2013-02-19 12:07:00,45.1,29.9,29.98,SSW,211,2.0,-999.0,55,0.00,,,0.02,Python,2013-02-19 17:07:00,
2013-02-19 12:12:00,45.3,30.6,29.97,SSW,207,2.0,-999.0,56,0.00,,,0.02,Python,2013-02-19 17:12:00,
2013-02-19 12:17:00,45.3,30.1,29.97,SSW,205,0.0,-999.0,55,0.00,,,0.02,Python,2013-02-19 17:17:00,
2013-02-19 12:22:00,45.2,30.0,29.97,ENE,63,0.0,-999.0,55,0.00,,,0.02,Python,2013-02-19 17:22:00,
2013-02-19 12:28:00,45.2,30.9,29.96,SW,215,0.0,-999.0,57,0.00,,,0.02,Python,2013-02-19 17:28:00,
2013-02-19 12:33:00,45.2,30.5,29.96,SSW,199,2.0,-999.0,56,0.00,,,0.02,Python,2013-02-19 17:33:00,
2013-02-19 12:38:00,45.2,30.9,29.95,SSE,157,1.0,-999.0,57,0.00,,,0.02,Python,2013-02-19 17:38:00,
2013-02-19 12:43:00,45.2,30.9,29.95,South,181,1.0,-999.0,57,0.00,,,0.02,Python,2013-02-19 17:43:00,
2013-02-19 12:48:00,45.2,31.4,29.95,ESE,109,0.0,-999.0,58,0.00,,,0.02,Python,2013-02-19 17:48:00,
2013-02-19 12:54:00,45.3,31.4,29.94,WSW,245,1.0,-999.0,58,0.00,,,0.02,Python,2013-02-19 17:54:00,
2013-02-19 12:59:00,45.3,31.0,29.94,SSW,206,3.0,-999.0,57,0.00,,,0.02,Python,2013-02-19 17:59:00,
2013-02-19 13:04:00,45.3,31.4,29.94,SW,216,0.0,-999.0,58,0.00,,,0.02,Python,2013-02-19 18:04:00,
2013-02-19 13:09:00,45.1,31.7,29.93,SW,225,0.0,-999.0,59,0.00,,,0.02,Python,2013-02-19 18:09:00,
2013-02-19 13:14:00,45.1,31.3,29.93,West,276,2.0,-999.0,58,0.00,,,0.02,Python,2013-02-19 18:14:00,
2013-02-19 13:19:00,45.0,31.6,29.93,WSW,249,0.0,-999.0,59,0.00,,,0.02,Python,2013-02-19 18:19:00,
2013-02-19 13:25:00,45.0,31.6,29.92,South,175,0.0,-999.0,59,0.00,,,0.02,Python,2013-02-19 18:25:00,
2013-02-19 13:30:00,44.9,31.9,29.92,East,89,0.0,-999.0,60,0.00,,,0.02,Python,2013-02-19 18:30:00,
2013-02-19 13:35:00,45.0,31.2,29.91,WSW,237,0.0,-999.0,58,0.00,,,0.02,Python,2013-02-19 18:35:00,
2013-02-19 13:40:00,45.1,31.7,29.91,East,95,1.0,-999.0,59,0.00,,,0.02,Python,2013-02-19 18:40:00,
2013-02-19 13:45:00,45.1,31.3,29.91,SSW,205,0.0,-999.0,58,0.00,,,0.02,Python,2013-02-19 18:45:00,
2013-02-19 13:51:00,45.5,30.3,29.91,WSW,238,1.0,-999.0,55,0.00,,,0.02,Python,2013-02-19 18:51:00,
2013-02-19 13:56:00,45.9,30.2,29.91,SW,225,0.0,-999.0,54,0.00,,,0.02,Python,2013-02-19 18:56:00,
2013-02-19 14:01:00,45.9,30.7,29.90,SSW,211,0.0,-999.0,55,0.00,,,0.02,Python,2013-02-19 19:01:00,
2013-02-19 14:06:00,45.8,30.6,29.90,WSW,248,2.0,-999.0,55,0.00,,,0.02,Python,2013-02-19 19:06:00,
2013-02-19 14:11:00,45.9,30.2,29.90,SSW,210,1.0,-999.0,54,0.00,,,0.02,Python,2013-02-19 19:11:00,
2013-02-19 14:17:00,45.8,31.0,29.90,WSW,257,0.0,-999.0,56,0.00,,,0.02,Python,2013-02-19 19:17:00,
2013-02-19 14:22:00,45.6,31.3,29.89,SW,225,0.0,-999.0,57,0.00,,,0.02,Python,2013-02-19 19:22:00,
2013-02-19 14:27:00,45.3,31.9,29.89,SW,216,1.0,-999.0,59,0.00,,,0.02,Python,2013-02-19 19:27:00,
2013-02-19 14:32:00,45.2,31.8,29.89,SSW,196,1.0,-999.0,59,0.00,,,0.02,Python,2013-02-19 19:32:00,
2013-02-19 14:37:00,44.9,32.3,29.88,NW,304,2.0,-999.0,61,0.00,,,0.02,Python,2013-02-19 19:37:00,
2013-02-19 14:42:00,44.8,32.2,29.88,WSW,253,0.0,-999.0,61,0.00,,,0.02,Python,2013-02-19 19:42:00,
2013-02-19 14:48:00,44.7,32.6,29.88,SSW,204,0.0,-999.0,62,0.00,,,0.02,Python,2013-02-19 19:48:00,
2013-02-19 14:53:00,44.7,32.6,29.87,SSW,202,0.0,-999.0,62,0.00,,,0.02,Python,2013-02-19 19:53:00,
2013-02-19 14:58:00,44.7,32.6,29.87,WSW,257,0.0,-999.0,62,0.00,,,0.02,Python,2013-02-19 19:58:00,
2013-02-19 15:03:00,44.7,33.0,29.87,SSW,201,2.0,-999.0,63,0.00,,,0.02,Python,2013-02-19 20:03:00,
2013-02-19 15:08:00,44.6,32.9,29.86,WSW,253,0.0,-999.0,63,0.00,,,0.02,Python,2013-02-19 20:08:00,
2013-02-19 15:14:00,44.4,33.1,29.85,SSW,198,0.0,-999.0,64,0.00,,,0.02,Python,2013-02-19 20:14:00,
2013-02-19 15:19:00,44.3,33.4,29.85,WSW,240,0.0,-999.0,65,0.00,,,0.02,Python,2013-02-19 20:19:00,
2013-02-19 15:24:00,44.3,33.4,29.84,SSW,200,0.0,-999.0,65,0.00,,,0.02,Python,2013-02-19 20:24:00,
2013-02-19 15:29:00,44.5,33.9,29.84,SW,225,0.0,-999.0,66,0.00,,,0.02,Python,2013-02-19 20:29:00,
2013-02-19 15:35:00,44.3,33.7,29.84,SW,223,0.0,-999.0,66,0.00,,,0.02,Python,2013-02-19 20:35:00,
2013-02-19 15:40:00,44.3,34.1,29.84,SW,223,0.0,-999.0,67,0.00,,,0.02,Python,2013-02-19 20:40:00,
2013-02-19 15:45:00,44.5,34.7,29.83,WSW,257,0.0,-999.0,68,0.00,,,0.02,Python,2013-02-19 20:45:00,
2013-02-19 15:50:00,44.5,35.1,29.83,West,267,0.0,-999.0,69,0.00,,,0.02,Python,2013-02-19 20:50:00,
2013-02-19 15:55:00,44.4,35.7,29.83,SW,219,3.0,-999.0,71,0.00,,,0.02,Python,2013-02-19 20:55:00,
2013-02-19 16:01:00,44.2,36.2,29.83,SSW,207,2.0,-999.0,73,0.00,,,0.02,Python,2013-02-19 21:01:00,
2013-02-19 16:06:00,43.9,36.5,29.83,SSW,209,0.0,-999.0,75,0.00,,,0.02,Python,2013-02-19 21:06:00,
2013-02-19 16:11:00,43.4,37.0,29.83,WSW,255,0.0,-999.0,78,0.00,,,0.02,Python,2013-02-19 21:11:00,
2013-02-19 16:16:00,43.0,37.3,29.82,West,276,0.0,-999.0,80,0.00,,,0.02,Python,2013-02-19 21:16:00,
2013-02-19 16:21:00,42.8,37.7,29.82,SW,216,0.0,-999.0,82,0.00,,,0.02,Python,2013-02-19 21:21:00,
2013-02-19 16:26:00,42.1,37.6,29.82,West,262,1.0,-999.0,84,0.00,,,0.03,Python,2013-02-19 21:26:00,
2013-02-19 16:31:00,41.8,37.9,29.82,WSW,249,0.0,-999.0,86,0.00,,,0.03,Python,2013-02-19 21:31:00,
2013-02-19 16:36:00,41.4,37.8,29.82,WSW,249,0.0,-999.0,87,0.00,,,0.03,Python,2013-02-19 21:36:00,
2013-02-19 16:41:00,41.0,37.7,29.81,WSW,249,0.0,-999.0,88,0.00,,,0.03,Python,2013-02-19 21:41:00,
2013-02-19 16:47:00,40.7,38.0,29.81,WSW,249,0.0,-999.0,90,0.00,,,0.03,Python,2013-02-19 21:47:00,
2013-02-19 16:52:00,40.3,37.6,29.80,WSW,240,0.0,-999.0,90,0.00,,,0.03,Python,2013-02-19 21:52:00,
2013-02-19 16:57:00,40.2,37.7,29.80,SW,236,0.0,-999.0,91,0.00,,,0.03,Python,2013-02-19 21:57:00,
2013-02-19 17:02:00,40.1,37.6,29.80,SW,236,0.0,-999.0,91,0.00,,,0.03,Python,2013-02-19 22:02:00,
2013-02-19 17:08:00,40.0,37.8,29.79,SW,236,0.0,-999.0,92,0.00,,,0.03,Python,2013-02-19 22:08:00,
2013-02-19 17:13:00,40.1,38.2,29.79,SW,236,0.0,-999.0,93,0.00,,,0.04,Python,2013-02-19 22:13:00,
2013-02-19 17:18:00,40.2,38.3,29.78,SW,236,0.0,-999.0,93,0.00,,,0.04,Python,2013-02-19 22:18:00,
2013-02-19 17:23:00,40.2,38.6,29.78,SW,236,0.0,-999.0,94,0.00,,,0.04,Python,2013-02-19 22:23:00,
2013-02-19 17:28:00,40.2,38.6,29.78,ESE,122,0.0,-999.0,94,0.00,,,0.04,Python,2013-02-19 22:28:00,
2013-02-19 17:34:00,40.2,38.6,29.77,SE,136,0.0,-999.0,94,0.00,,,0.04,Python,2013-02-19 22:34:00,
2013-02-19 17:39:00,40.1,38.5,29.76,SE,136,0.0,-999.0,94,0.00,,,0.04,Python,2013-02-19 22:39:00,
2013-02-19 17:44:00,40.0,38.4,29.76,SE,136,0.0,-999.0,94,0.00,,,0.04,Python,2013-02-19 22:44:00,
2013-02-19 17:49:00,39.9,38.3,29.76,SE,136,0.0,-999.0,94,0.00,,,0.04,Python,2013-02-19 22:49:00,
2013-02-19 17:54:00,39.9,38.3,29.76,SE,136,0.0,-999.0,94,0.00,,,0.05,Python,2013-02-19 22:54:00,
2013-02-19 17:59:00,39.8,38.2,29.76,SE,136,0.0,-999.0,94,0.00,,,0.05,Python,2013-02-19 22:59:00,
2013-02-19 18:05:00,39.7,38.3,29.75,SE,136,0.0,-999.0,95,0.06,,,0.06,Python,2013-02-19 23:05:00,
2013-02-19 18:10:00,39.7,38.3,29.75,SE,136,0.0,-999.0,95,0.09,,,0.07,Python,2013-02-19 23:10:00,
2013-02-19 18:15:00,39.7,38.3,29.75,SE,136,0.0,-999.0,95,0.09,,,0.07,Python,2013-02-19 23:15:00,
2013-02-19 18:20:00,39.7,38.3,29.74,South,170,0.0,-999.0,95,0.06,,,0.08,Python,2013-02-19 23:20:00,
2013-02-19 18:25:00,39.8,38.7,29.74,South,170,0.0,-999.0,96,0.06,,,0.08,Python,2013-02-19 23:25:00,
2013-02-19 18:31:00,39.8,38.7,29.74,South,170,0.0,-999.0,96,0.05,,,0.08,Python,2013-02-19 23:31:00,
2013-02-19 18:36:00,39.8,38.7,29.73,East,87,0.0,-999.0,96,0.05,,,0.09,Python,2013-02-19 23:36:00,
2013-02-19 18:41:00,39.8,38.7,29.72,SSE,153,0.0,-999.0,96,0.05,,,0.09,Python,2013-02-19 23:41:00,
2013-02-19 18:46:00,39.8,38.7,29.72,SSE,154,0.0,-999.0,96,0.06,,,0.10,Python,2013-02-19 23:46:00,
2013-02-19 18:51:00,39.9,38.8,29.72,South,182,0.0,-999.0,96,0.09,,,0.11,Python,2013-02-19 23:51:00,
2013-02-19 18:57:00,40.0,38.9,29.71,South,185,0.0,-999.0,96,0.12,,,0.12,Python,2013-02-19 23:57:00,
2013-02-19 19:02:00,40.0,39.2,29.71,South,188,1.0,-999.0,97,0.11,,,0.13,Python,2013-02-20 00:02:00,
2013-02-19 19:07:00,40.1,39.3,29.71,South,188,0.0,-999.0,97,0.10,,,0.14,Python,2013-02-20 00:07:00,
2013-02-19 19:12:00,40.2,39.4,29.70,SSW,192,0.0,-999.0,97,0.13,,,0.15,Python,2013-02-20 00:12:00,
2013-02-19 19:17:00,40.1,39.3,29.70,SSW,192,0.0,-999.0,97,0.13,,,0.16,Python,2013-02-20 00:17:00,
2013-02-19 19:22:00,40.2,39.4,29.69,South,187,0.0,-999.0,97,0.08,,,0.17,Python,2013-02-20 00:22:00,
2013-02-19 19:28:00,40.4,39.6,29.69,ESE,116,0.0,-999.0,97,0.08,,,0.17,Python,2013-02-20 00:28:00,
2013-02-19 19:33:00,40.6,39.8,29.67,SSE,157,1.0,-999.0,97,0.07,,,0.18,Python,2013-02-20 00:33:00,
2013-02-19 19:38:00,40.7,39.9,29.67,SSW,197,0.0,-999.0,97,0.07,,,0.18,Python,2013-02-20 00:38:00,
2013-02-19 19:43:00,41.0,40.2,29.67,SW,225,0.0,-999.0,97,0.05,,,0.19,Python,2013-02-20 00:43:00,
2013-02-19 19:48:00,40.9,40.1,29.66,SW,225,0.0,-999.0,97,0.05,,,0.19,Python,2013-02-20 00:48:00,
2013-02-19 19:54:00,41.0,40.2,29.66,SSW,212,0.0,-999.0,97,0.07,,,0.20,Python,2013-02-20 00:54:00,
2013-02-19 19:59:00,41.3,40.5,29.65,SSE,161,0.0,-999.0,97,0.07,,,0.20,Python,2013-02-20 00:59:00,
2013-02-19 20:04:00,41.5,41.0,29.65,SSE,161,0.0,-999.0,98,0.05,,,0.20,Python,2013-02-20 01:04:00,
2013-02-19 20:09:00,41.4,40.6,29.64,SSE,161,0.0,-999.0,97,0.04,,,0.21,Python,2013-02-20 01:09:00,
2013-02-19 20:14:00,41.3,40.5,29.64,SSE,161,0.0,-999.0,97,0.04,,,0.21,Python,2013-02-20 01:14:00,
2013-02-19 20:20:00,41.5,41.0,29.63,SSE,161,0.0,-999.0,98,0.04,,,0.21,Python,2013-02-20 01:20:00,
2013-02-19 20:25:00,41.7,41.2,29.63,SSE,161,0.0,-999.0,98,0.00,,,0.21,Python,2013-02-20 01:25:00,
2013-02-19 20:30:00,41.8,41.3,29.63,SSE,161,0.0,-999.0,98,0.00,,,0.22,Python,2013-02-20 01:30:00,
2013-02-19 20:35:00,41.7,41.2,29.62,SSE,161,0.0,-999.0,98,0.00,,,0.22,Python,2013-02-20 01:35:00,
2013-02-19 20:40:00,41.6,41.1,29.62,SSE,162,0.0,-999.0,98,0.00,,,0.22,Python,2013-02-20 01:40:00,
2013-02-19 20:46:00,41.4,40.6,29.61,SSE,162,0.0,-999.0,97,0.00,,,0.22,Python,2013-02-20 01:46:00,
2013-02-19 20:51:00,41.2,40.4,29.60,SSE,162,0.0,-999.0,97,0.00,,,0.22,Python,2013-02-20 01:51:00,
2013-02-19 20:56:00,41.0,40.2,29.61,SSE,162,0.0,-999.0,97,0.00,,,0.23,Python,2013-02-20 01:56:00,
2013-02-19 21:01:00,40.9,40.1,29.60,SSE,162,0.0,-999.0,97,0.12,,,0.24,Python,2013-02-20 02:01:00,
2013-02-19 21:06:00,40.9,40.1,29.61,SSE,162,0.0,-999.0,97,0.06,,,0.25,Python,2013-02-20 02:06:00,
2013-02-19 21:11:00,40.9,40.1,29.61,South,190,2.0,-999.0,97,0.12,,,0.26,Python,2013-02-20 02:11:00,
2013-02-19 21:17:00,40.6,39.8,29.62,South,190,0.0,-999.0,97,0.13,,,0.27,Python,2013-02-20 02:17:00,
2013-02-19 21:22:00,40.1,39.3,29.61,South,190,0.0,-999.0,97,0.09,,,0.27,Python,2013-02-20 02:22:00,
2013-02-19 21:27:00,40.0,39.2,29.61,South,190,0.0,-999.0,97,0.14,,,0.29,Python,2013-02-20 02:27:00,
2013-02-19 21:32:00,39.9,39.1,29.61,South,190,0.0,-999.0,97,0.10,,,0.29,Python,2013-02-20 02:32:00,
2013-02-19 21:38:00,40.0,39.2,29.61,South,190,0.0,-999.0,97,0.10,,,0.30,Python,2013-02-20 02:38:00,
2013-02-19 21:43:00,40.0,39.2,29.61,South,190,0.0,-999.0,97,0.08,,,0.31,Python,2013-02-20 02:43:00,
2013-02-19 21:48:00,40.0,39.2,29.60,South,190,0.0,-999.0,97,0.08,,,0.31,Python,2013-02-20 02:48:00,
2013-02-19 21:53:00,40.0,39.5,29.60,South,190,0.0,-999.0,98,0.05,,,0.31,Python,2013-02-20 02:53:00,
2013-02-19 21:58:00,40.0,39.5,29.60,South,190,0.0,-999.0,98,0.00,,,0.31,Python,2013-02-20 02:58:00,
2013-02-19 22:03:00,39.9,39.4,29.60,South,190,0.0,-999.0,98,0.00,,,0.31,Python,2013-02-20 03:03:00,
2013-02-19 22:09:00,39.8,39.3,29.60,South,190,0.0,-999.0,98,0.00,,,0.32,Python,2013-02-20 03:09:00,
2013-02-19 22:14:00,39.7,38.9,29.59,South,190,0.0,-999.0,97,0.00,,,0.32,Python,2013-02-20 03:14:00,
2013-02-19 22:19:00,39.6,38.8,29.59,South,190,0.0,-999.0,97,0.00,,,0.32,Python,2013-02-20 03:19:00,
2013-02-19 22:24:00,39.7,38.9,29.58,South,190,0.0,-999.0,97,0.00,,,0.32,Python,2013-02-20 03:24:00,
2013-02-19 22:30:00,40.0,39.5,29.58,South,190,0.0,-999.0,98,0.00,,,0.32,Python,2013-02-20 03:30:00,
2013-02-19 22:35:00,40.0,39.5,29.57,South,190,0.0,-999.0,98,0.00,,,0.33,Python,2013-02-20 03:35:00,
2013-02-19 22:40:00,39.9,39.4,29.57,South,190,0.0,-999.0,98,0.00,,,0.33,Python,2013-02-20 03:40:00,
2013-02-19 22:45:00,39.8,39.3,29.57,South,190,0.0,-999.0,98,0.00,,,0.33,Python,2013-02-20 03:45:00,
2013-02-19 22:50:00,39.7,39.2,29.57,South,190,0.0,-999.0,98,0.00,,,0.33,Python,2013-02-20 03:50:00,
2013-02-19 22:55:00,39.4,38.9,29.58,South,190,0.0,-999.0,98,0.00,,,0.33,Python,2013-02-20 03:55:00,
2013-02-19 23:01:00,39.2,38.7,29.58,South,179,0.0,-999.0,98,0.00,,,0.33,Python,2013-02-20 04:01:00,
2013-02-19 23:06:00,38.9,38.1,29.58,South,179,0.0,-999.0,97,0.00,,,0.33,Python,2013-02-20 04:06:00,
2013-02-19 23:11:00,39.0,38.2,29.56,South,179,0.0,-999.0,97,0.00,,,0.33,Python,2013-02-20 04:11:00,
2013-02-19 23:16:00,39.4,38.9,29.58,SW,234,0.0,-999.0,98,0.00,,,0.33,Python,2013-02-20 04:16:00,
2013-02-19 23:21:00,39.3,38.8,29.58,SW,234,0.0,-999.0,98,0.00,,,0.33,Python,2013-02-20 04:21:00,
2013-02-19 23:27:00,39.2,38.7,29.58,WSW,249,0.0,-999.0,98,0.00,,,0.33,Python,2013-02-20 04:27:00,
2013-02-19 23:32:00,39.3,38.8,29.57,WSW,249,0.0,-999.0,98,0.00,,,0.33,Python,2013-02-20 04:32:00,
2013-02-19 23:37:00,39.0,38.5,29.57,WSW,249,0.0,-999.0,98,0.00,,,0.33,Python,2013-02-20 04:37:00,
2013-02-19 23:42:00,38.9,38.4,29.57,WSW,252,0.0,-999.0,98,0.00,,,0.33,Python,2013-02-20 04:42:00,
2013-02-19 23:47:00,38.8,38.3,29.57,WSW,244,0.0,-999.0,98,0.00,,,0.33,Python,2013-02-20 04:47:00,
2013-02-19 23:53:00,39.0,38.5,29.57,SSW,205,0.0,-999.0,98,0.00,,,0.33,Python,2013-02-20 04:53:00,
2013-02-19 23:58:00,38.8,38.3,29.56,SSW,205,0.0,-999.0,98,0.00,,,0.33,Python,2013-02-20 04:58:00,